Regional Weather Roundup
Issued by NWS Charleston, WV

Home | Current Version | Previous Version | Graphics & Text | Print | Product List | Glossary On
Versions: 1 2 3 4 5 6 7 8 9 10 11 12 13 14 15 16 17 18 19 20 21 22 23 24 25 26 27 28 29 30 31 32 33 34 35 36 37 38 39 40 41 42 43 44 45 46 47 48 49 50
000
ASUS41 KRLX 161210
RWRRLX
West Virginia Regional Weather Roundup
National Weather Service Charleston WV
700 AM EST TUE JAN 16 2018

Note: "fair" indicates few or no clouds below 12,000 feet with no
significant weather and/or obstructions to visibility.

WVZ003-161300-
Northern Panhandle of West Virginia

CITY           SKY/WX    TMP DP  RH WIND       PRES   REMARKS
WHEELING       LGT SNOW  25  23  92 S3        30.35R FOG
$$

WVZ009-161300-
Northwest West Virginia

CITY           SKY/WX    TMP DP  RH WIND       PRES   REMARKS
PARKERSBURG    LGT SNOW  27  25  92 SW3       30.41S FOG
$$

WVZ006-161300-
Western West Virginia

CITY           SKY/WX    TMP DP  RH WIND       PRES   REMARKS
HUNTINGTON     LGT SNOW  26  22  84 NW12      30.41R FOG
$$

WVZ015-161300-
West Central West Virginia

CITY           SKY/WX    TMP DP  RH WIND       PRES   REMARKS
CHARLESTON     LGT SNOW  30  26  85 W3        30.38R FOG
$$

WVZ022-031-161300-
North Central West Virginia

CITY           SKY/WX    TMP DP  RH WIND       PRES   REMARKS
CLARKSBURG     LGT SNOW  30  27  88 CALM      30.35R FOG
MORGANTOWN     CLOUDY    29  26  89 CALM      30.36R FOG
$$

WVZ025-035-042-045-161300-
Southern West Virginia

CITY           SKY/WX    TMP DP  RH WIND       PRES   REMARKS
BECKLEY        CLOUDY    32  21  64 CALM      30.29R
LOGAN          CLOUDY    30  27  86 CALM      30.33S
BLUEFIELD      CLOUDY    31  20  63 SW7       30.29R
LEWISBURG      CLOUDY    24  20  86 CALM      30.31S
$$

WVZ047-161300-
Northern Mountains of West Virginia

CITY           SKY/WX    TMP DP  RH WIND       PRES   REMARKS
ELKINS         LGT SNOW  30  27  88 CALM      30.30R FOG
$$

WVZ052-161300-
Eastern Panhandle of West Virginia

CITY           SKY/WX    TMP DP  RH WIND       PRES   REMARKS
MARTINSBURG    CLOUDY    25  21  85 NE3       30.41S
PETERSBURG     MOCLDY    21  17  83 CALM      30.39R
$$



USA.gov is the U.S. government's official web portal to all federal, state and local government web resources and services.